カタログに戻る

BREEZE-M R/B

運用中HEO
NORAD 39123·ROCKET BODY·🇷🇺 Russia

打ち上げ Mar 26, 2013 から Baikonur Cosmodrome

Loading…

次のパス (今後24時間)

TLE

経年Source: Space-Track

元期: Aug 25, 2026, 21:31 UTC

1 39123U 13012B   26237.89685760  .00000017  00000-0  00000-0 0  9992
2 39123  17.8515 135.0619 5463564 216.0122  90.5005  2.05414428100638

AllMySatでBREEZE-M R/Bをリアルタイム追跡

Download on the App Store